Location: Holiday Acres Laynes 2 Mobile Home Park
(26.7249°N, 81.8671°W)
Time: 06:32:39
(UTC+00:00)

SAR-Lupe-1 - Pass Details

Date: 25 November 2020
Orbit: 480 x 485 km, 98.2° (Epoch: 26 November)

Event Time Altitude Azimuth Distance (km) Brightness Sun altitude
Rises 23:25:56 0° 11° (NNE) 2,550 7.4 -11.6°
Reaches altitude 10° 23:28:00 10° 12° (NNE) 1,667 6.5 -12.1°
Maximum altitude 23:31:35 89° 285° (WNW) 489 4.0 -12.8°
Drops below altitude 10° 23:35:09 10° 193° (SSW) 1,658 7.2 -13.6°
Sets 23:37:12 0° 193° (SSW) 2,534 8.1 -14.0°
